Flag Weather past 2 weeks in Ra'anana, Israel

Now
59 °F

Passing clouds.


Feels Like: 58 °F
Forecast: 56 / 66 °F
Wind: 7 mph from Southeast

Location: Dov Airport

Current Time: Nov 28, 2014 at 8:25:01 AM

Latest Report: Nov 28, 2014 at 7:50 AM


Visibility: N/A

Pressure: 30.18 "Hg

Humidity: 82%

Dew point: 54 °F

Location of Ra'ananaLocation

Historic Weather in Ra'anana — Graph

°F

Ra'anana temperature yesterday

Maximum temperature yesterday: 66 °F (at 1:50 PM)
Minimum temperature yesterday: 57 °F (at 5:50 AM)
Average temperature yesterday: 60 °F

Past Weeks' High & Low Weather Summary

 TemperatureHumidityPressure
High82 °F (Nov 19, 1:50 PM)94% (Nov 23, 9:50 PM)30.15 "Hg (Nov 23, 9:50 PM)
Low55 °F (Nov 25, 3:50 AM)30% (Nov 19, 12:50 PM)29.83 "Hg (Nov 26, 4:55 AM)
Average67 °F68%29.94 "Hg
* Reported Nov 13 6:50 AM — Nov 28 6:50 AM, Ra'anana, Weather by CustomWeather, © 2014

Note: Actual official high and low records may vary slightly from our data, if they occured in-between our weather recording intervals... More about our weather records

Advertising

Ra'anana weather history for previous 24 hours

 ConditionsComfort  
Time TempWeatherWind HumidityBarometerVisibility
6:50 AM
Nov 28
57 °FScattered clouds.6 mph82%30.15 "HgN/A
5:50 AM55 °FClear.6 mph88%30.15 "Hg10 mi
10:50 PM
Nov 27
57 °FPassing clouds.7 mph88%30.09 "HgN/A
9:50 PM57 °FPassing clouds.7 mph88%30.07 "HgN/A
8:50 PM57 °FPassing clouds.8 mph94%30.07 "HgN/A
7:50 PM57 °FPassing clouds.5 mph94%30.07 "HgN/A
6:57 PM59 °FRain. Passing clouds.3 mph88%30.07 "Hg5 mi
5:50 PM59 °FPassing clouds.6 mph82%30.04 "HgN/A
4:50 PM59 °FLight rain. Passing clouds.5 mph77%30.01 "HgN/A
3:50 PM63 °FPassing clouds.5 mph73%30.01 "HgN/A
2:50 PM63 °FLight rain. Scattered clouds.7 mph73%30.01 "HgN/A
1:50 PM66 °FPartly sunny.2 mph73%29.98 "HgN/A
12:50 PM63 °FLight rain. Partly sunny.3 mph77%29.98 "HgN/A
11:56 AM61 °FLight rain. Partly sunny.6 mph83%29.98 "HgN/A
10:50 AM61 °FPartly sunny.13 mph77%29.98 "HgN/A
9:50 AM61 °FScattered clouds.10 mph83%30.01 "HgN/A
8:50 AM59 °FPartly sunny.8 mph82%30.01 "HgN/A
Weather by CustomWeather, © 2014

See weather overviewHow to use our weather pages